Location: *
(41.0833°N, 73.4167°W)
Time: 02:36:45
(UTC+00:00)

Cosmos 1943 Rocket - Pass Details

Date: 22 October 2019
Orbit: 810 x 845 km, 71.0° (Epoch: 21 November)

Event Time Altitude Azimuth Distance (km) Brightness Sun altitude
Rises 09:50:08 0° 341° (NNW) 3,409 5.2 -16.2°
Reaches altitude 10° 09:52:42 10° 348° (NNW) 2,473 4.5 -15.8°
Maximum altitude 09:58:09 45° 61° (ENE) 1,135 3.3 -14.7°
Drops below altitude 10° 10:03:33 10° 133° (SE) 2,459 5.4 -13.7°
Sets 10:06:05 0° 140° (SE) 3,388 6.0 -13.2°
